Location: Observatoire Alphonse-Tardif � St-N�r�e
(46.7267°N, 70.7033°W)
Time: 10:59:36
(UTC-05:00)

ISS - Visible Passes

Search period start: 18 February 2019 00:00
Search period end: 28 February 2019 00:00
Orbit: 403 x 411 km, 51.6° (Epoch: 19 February)

Date Brightness Start Highest point End Pass type
(mag) Time Alt. Az. Time Alt. Az. Time Alt. Az.
22 Feb -1.1 06:01:13 10° S 06:03:42 20° SE 06:06:12 10° E visible
23 Feb -0.8 05:11:05 10° SSE 05:12:26 12° SE 05:13:46 10° ESE visible
24 Feb -2.6 05:53:53 10° SW 05:56:59 42° SE 06:00:07 10° ENE visible
25 Feb -1.8 05:02:51 10° SSW 05:05:36 25° SE 05:08:21 10° E visible
26 Feb -1.2 04:13:49 15° SE 04:14:15 15° SE 04:16:15 10° E visible
26 Feb -3.8 05:47:05 10° WSW 05:50:21 87° SSE 05:53:38 10° ENE visible
27 Feb -3.3 04:57:21 27° SSW 04:58:50 53° SSE 05:02:03 10° ENE visible
